Back to catalog

H-2A R/B

AliveGTO
NORAD 41941·ROCKET BODY·🇯🇵 Japan

Launched Jan 24, 2017 from Tanegashima Space Center

Loading…

TLE

FreshSource: Mike McCants

Epoch: Sep 15, 2026, 06:27 UTC

1 41941U 17005B   26258.26941966  .00000381  00000-0  63853-3 0    01
2 41941  21.2937 343.3538 7169264 119.8309 328.7833  2.35949413  4862

Track H-2A R/B in real time with AllMySat

Download on the App Store